C/2007 D1 (LINEAR)
Epoch 2007 June 29.0 TT = JDT 2454280.5  
T 2007 June 19.46085 TT                                 Nakano
q   8.7936765            (2000.0)            P               Q
z  -0.0002143      Peri.  340.15924     -0.88994623     -0.44441387
 +/-0.0000021      Node   171.09852     +0.45350418     -0.83856989
e   1.0018846      Incl.   41.45031     -0.04826666     +0.31511403
From 375 observations 2007 Feb. 17-2009 May 2, mean residual 0".63.
   (1/a)org.= +0.000038, (1/a)fut.= +0.000733 (+/-0.000002), Q= 8.
   The comet has passed 1.88 AU from Saturn on 2008 July 28 UT.
Residuals in seconds of arc 
2007/                     070313 D88  0.6-  0.1+    080328 704  0.7+  1.2+  
070217 704  1.8+  1.9-    070314 415  0.5+  0.0     080328 704  0.6+  0.8+  
070217 704  1.8+  1.9+    070314 415  0.1+  0.1-    080328 704  0.4+  0.8+  
070217 704 (2.0+  1.5+)   070314 A77  0.4-  0.3-    080330 J70 (8.0+  2.2-) 
070217 704 (1.5+  2.0+)   070314 A77 (0.8+  2.9+)   080330 J70  1.6-  0.7-  
070217 246  0.5+  0.3+    070314 A77  0.7+  0.9+    080330 J70 (3.0-  0.0 ) 
070217 246  0.2+  0.1-    070316 246  0.1-  0.5+    080401 B49  0.0   0.8+  
070217 246  0.1+  0.7+    070316 246  0.1+  0.9+    080403 691  1.3-  0.5-  
070217 246  0.4+  0.2+    070316 246  0.1-  0.5+    080403 691  1.4-  0.6-  
070217 246  0.3+  0.4+    070316 246  0.1+  0.4+    080403 691  1.5-  0.3-  
070217 246  0.7+  0.5+    070316 246  0.3+  0.1+    080403 204  0.7+  0.0   
070217 246  0.8+  0.5+    070316 246  0.2-  0.1+    080404 204  0.7+  0.2+  
070217 246  0.8+  0.5+    070316 246  0.5+  0.3+    080404 900  0.8+  1.8+  
070217 473 (2.3-  1.1+)   070317 349  0.8-  0.5-    080404 900  1.4+  0.1-  
070217 473  1.9-  0.8+    070317 349  0.7-  0.6-    080405 691  1.5-  0.3-  
070218 673  0.9+  0.1-    070317 349  1.0-  0.4-    080405 691  1.4-  0.3-  
070218 673  1.3+  0.1+    070317 157  0.7+  0.1-    080405 691  1.3-  0.1+  
070218 673  1.3+  0.0     070317 232  1.3-  1.3-    080410 467  0.2-  0.0   
070218 703  0.6-  1.3-    070317 232  1.3-  0.5-    080410 467  0.1+  0.2+  
070218 703 (2.7-  1.8-)   070317 232  0.5-  0.7+    080410 467  0.3+  0.2-  
070218 703 (2.4-  0.0 )   070318 213  0.0   0.2+    080410 467  0.0   0.5-  
070218 734  0.4+  0.3-    070318 213  0.1+  0.1+    080430 A77  0.2-  0.3-  
070218 734  0.2-  0.3+    070318 213  0.1-  0.1+    080501 132  0.5-  0.4-  
070218 734  0.2-  0.2+    070322 415  0.5+  0.1-    080501 132  0.4-  0.3+  
070218 734  0.0   0.3+    070322 415  0.4+  0.4-    080501 132  0.4-  0.3-  
070218 734  0.2+  0.1+    070322 J70 (0.3+  2.1+)   080503 215  0.4-  0.1-  
070218 682  0.4-  1.0+    070322 J70  0.5+  1.6+    080503 215  0.5-  0.1-  
070218 711  0.4+  0.0     070324 585 (3.3+  0.2+)   080503 215  0.4-  0.1-  
070218 704  0.6+  0.9-    070325 372  0.4+  1.0-    080529 B37  1.2+  0.8+  
070218 711  0.5+  0.3+    070325 372  0.7+  0.9-    080529 B37  1.0+  0.8+  
070218 711  0.4+  0.2+    070405 585  0.3+  0.4-    080529 B37  1.3+  0.7+  
070218 704  1.9+  0.1+    070405 585  0.1+  0.1-    081224 132  0.3+  0.7+  
070218 704  0.7+  1.2+    070406 B30  0.8-  0.9-    081224 132  0.2-  0.0   
070218 704  0.2+  0.5+    070406 213  0.2+  0.5-    081224 132  0.1+  0.5+  
070218 704 (1.3-  2.4+)   070406 B30  1.0-  1.0-    081230 461  0.4+  0.3+  
070218 682  0.6-  0.7+    070406 213  0.2+  0.3-    081230 461  0.1+  0.4+  
070218 474  0.6+  0.2+    070406 B30  0.4+  1.3-    081230 461  0.2+  0.4+  
070218 474  0.4+  0.1-    070406 213  0.1+  0.3-    2009/                   
070218 473  0.0   0.8+    070407 415  0.4+  0.1+    090111 204  0.7-  0.2-  
070218 473  1.0-  0.1+    070407 415  1.0+  0.6+    090111 204  0.0   0.1-  
070218 473  0.2-  0.4-    070409 215  0.3-  0.7+    090125 349  0.1+  0.0   
070218 246  0.2+  0.5+    070411 415  0.2+  0.3+    090125 349  0.1-  0.1+  
070218 246  0.2+  0.6+    070411 415  0.2+  0.3+    090125 349  0.0   0.2+  
070218 246  0.5+  0.5+    070415 415  0.6+  0.5+    090128 H10  0.4-  0.3-  
070218 246  0.4+  0.9+    070415 415  0.6+  0.3-    090128 H10  0.1+  0.1-  
070218 246  0.2+  0.5+    070420 A79  0.9-  0.3-    090128 H10  0.1+  0.1-  
070218 113  0.6-  0.1+    070420 A79  0.9+  0.7-    090205 H10  0.1+  0.6+  
070218 113  1.5-  0.4-    070420 585  0.9+  0.3-    090205 H10  0.3+  0.4-  
070219 734  1.8-  0.1-    070420 A79  0.6-  1.5-    090205 H10  0.5+  0.3-  
070219 734  0.0   0.8-    070420 585 (0.4-  2.7+)   090206 900  0.3-  0.2-  
070219 734  0.4-  0.1+    070423 213  0.0   0.2+    090206 900  0.4-  0.3-  
070219 734  1.2-  0.5+    070423 213  0.1+  0.2+    090208 J24  0.4-  0.2-  
070219 703  1.3-  0.7+    070423 213  0.1-  0.2+    090208 J24  0.3-  0.4+  
070219 703  1.5-  0.2+    070423 170  0.6-  0.7+    090208 J24  0.3-  0.4+  
070219 703  1.9-  0.4+    070423 170  0.8-  0.6+    090216 B33  0.1-  0.3-  
070219 300  0.4+  0.4+    070504 585  0.3-  0.7+    090216 B33  0.1-  0.2+  
070219 300  0.5+  0.3-    070504 585  0.5+  0.0     090219 H45  0.6+  0.2+  
070219 300  0.2+  0.7-    070504 585  0.4+  0.2-    090219 H45  0.2+  0.2+  
070219 300  0.4+  0.3+    070504 585  0.4+  0.2+    090219 H45  0.5+  0.2-  
070219 D35  0.3+  0.2+    070504 585  0.1+  0.7+    090219 H45  0.4+  0.0   
070219 D35  0.0   0.1+    070507 J70 (1.3-  7.1+)   090219 H45  0.2+  0.1+  
070219 D35  0.1+  0.4+    070508 J70 (1.6+  3.2-)   090219 H45  0.2-  0.2+  
070220 204  0.2-  0.1+    070508 J70 (3.4+  2.1-)   090221 900  0.6-  1.3-  
070220 204  0.4+  0.4-    070510 473  1.1-  0.1+    090221 900  0.6+  1.9-  
070221 372 (4.0-  0.5-)   070511 415  0.5+  0.4+    090222 691  0.6-  0.1-  
070221 349  0.2+  0.2-    070511 415  0.4+  0.2+    090222 691  0.3+  0.1+  
070221 372  0.1-  0.0     070512 415  0.8-  0.2+    090222 691  0.1-  0.3+  
070221 349  0.2+  0.0     070512 415  0.3+  0.6-    090223 H36  0.9-  0.4-  
070221 246  0.3+  0.5-    070516 673  0.0   0.1-    090223 H36  0.9-  0.4-  
070221 246  0.1+  0.5-    070516 673  0.2-  0.3+    090223 H36  0.9-  0.3-  
070221 246  0.3+  0.4-    070516 673  0.1+  0.2+    090223 H36  1.0-  0.2-  
070222 850  0.3-  0.2+    070516 673  0.2+  0.5+    090226 212  0.6-  0.1-  
070222 850  0.4-  0.3+    070526 415  0.7+  0.2-    090226 212  0.2-  0.3+  
070222 850  0.1+  0.2+    070606 415  0.0   0.5-    090226 691 (2.4-  0.5-) 
070222 213  0.1+  0.3-    070622 415  0.2-  1.2+    090226 691 (2.5-  0.3-) 
070222 213  0.5+  0.1+    070622 415  0.5+  0.5+    090226 691 (2.2-  0.5-) 
070222 213  0.8+  0.2-    070623 415  1.5+  1.1-    090305 H10  0.3-  0.1-  
070223 850  0.3-  0.5+    070623 415  0.3+  0.7-    090314 900  0.5-  0.0   
070223 850  0.4-  0.4+    071117 349  0.0   0.9-    090314 900  0.1-  0.2-  
070223 850  0.5-  0.0     071117 349  0.5+  1.2-    090317 349  0.1-  0.0   
070223 D88  0.0   0.7+    071118 349  0.3+  0.4-    090317 349  0.2-  0.1-  
070223 D88  0.0   0.4+    071118 349  0.1+  0.5-    090318 H10  0.2-  0.2-  
070223 D88  0.6-  0.0     071214 349  1.4+  0.4-    090318 H10  0.1+  0.0   
070224 372  0.1-  0.2-    071215 349  0.5+  0.1+    090318 H10  0.4+  0.8-  
070224 372  0.2+  0.1+    071215 349  0.8+  0.1+    090318 900  0.3-  0.1+  
070224 300  0.8+  0.8-    071231 415  0.2+  0.2-    090318 900  0.4-  0.1-  
070224 300  0.4+  0.3-    071231 415  1.3+  0.0     090319 704 (2.0+  0.6+) 
070224 300  0.5+  0.6-    2008/                     090319 704 (3.2+  1.2+) 
070224 349  0.1+  0.1+    080105 900 (3.1-  3.4-)   090319 704  0.9+  1.5+  
070224 349  0.1-  0.2+    080105 900 (3.1-  0.9-)   090319 704  0.1+  0.5+  
070226 349  0.7+  0.2+    080202 J36  0.2-  0.1+    090320 H45  0.5+  0.4+  
070226 349  0.7+  0.2+    080202 J36  0.2-  0.3-    090320 H45  0.5+  0.3+  
070227 850  0.7-  0.5+    080202 J36  0.5-  0.2-    090320 H45  0.3+  0.2+  
070227 850  0.1+  0.6-    080210 204  0.0   0.2+    090320 H45  0.8+  0.6+  
070227 J70 (0.6-  3.5-)   080210 J96  0.8+  0.6+    090320 H45  1.4+  0.1+  
070227 J70  1.9+  0.8-    080210 J96  1.0+  0.2+    090320 B70  1.5-  1.1-  
070302 J70  0.8+  0.5-    080210 204  0.1+  0.1+    090321 B70 (2.5-  1.0-) 
070302 J70 (0.2-  3.8+)   080210 J96  0.6+  0.3+    090321 204  0.2+  0.0   
070303 232  0.8+  1.6-    080214 355  0.5-  0.0     090322 204  0.1-  0.1-  
070303 232  0.7-  0.4+    080214 355  0.4-  0.2+    090322 D29  1.2-  0.4+  
070303 232  1.3-  1.0+    080214 355  0.0   0.3-    090322 D29  0.2-  0.1-  
070307 355  1.2-  0.0     080216 349  0.1+  0.5-    090322 D29  1.5-  0.6-  
070307 355  1.7-  0.1+    080216 349  0.0   0.7-    090322 D29  1.8-  0.7-  
070307 355  1.4-  0.6-    080226 704  1.6+  0.3-    090325 D29  1.2-  0.5-  
070307 349  0.6-  1.6-    080226 704 (2.2+  0.8+)   090325 D29 (2.0-  0.9-) 
070307 349  0.5-  1.5-    080226 704  1.1-  0.8+    090325 D29  1.4-  1.0-  
070308 850 (1.9+  2.3-)   080226 704  0.4-  1.7+    090325 D29  1.4-  0.8-  
070308 850  0.7+  0.9-    080229 D88  0.0   0.1-    090401 H45  0.8+  0.4+  
070308 850  0.7-  0.8-    080229 D88  0.2-  0.5+    090401 H45  0.8+  0.1+  
070308 850  1.1-  0.8+    080229 D88  0.6-  0.1+    090401 H45  0.6+  0.2-  
070308 850  1.3-  0.4+    080301 D29  1.3-  0.3+    090401 H45  0.3-  0.0   
070309 372  0.2+  1.0+    080301 D29  0.8-  1.0-    090401 H45  0.2+  0.5-  
070309 372  1.0-  0.8+    080301 D29  1.3-  0.2-    090401 H45  0.7+  0.6+  
070309 B30 (6.0-  7.2-)   080301 D29  0.9-  0.1-    090416 461  0.7+  0.3+  
070309 B30 (6.3-  7.0-)   080302 704 (2.2+  1.2-)   090416 461  1.0+  0.2+  
070310 130  0.5-  0.4-    080302 704 (2.9+  2.3+)   090416 461  0.8+  0.5+  
070310 130  0.4-  0.7+    080302 704 (2.6+  2.7+)   090417 461  0.7+  0.4+  
070310 130  0.3+  0.2+    080302 704 (0.8-  3.0+)   090417 461  0.7+  0.2+  
070310 130  0.1+  0.9-    080308 400  0.1-  0.2+    090417 461  0.6+  0.0   
070310 232  0.1-  0.6-    080308 400  0.4-  0.3+    090419 461  0.8+  0.4+  
070310 232  0.1-  1.7-    080308 400  0.1+  0.2+    090419 461  0.6+  0.4+  
070310 232  0.6+  1.5-    080308 J51  0.1-  0.2-    090419 461  0.9+  0.3+  
070311 372  0.1-  0.4-    080308 J51  0.5-  0.2-    090421 204  0.1+  0.3-  
070311 349  0.0   0.2-    080308 J51  0.5-  0.1-    090422 204  0.0   0.5+  
070311 349  0.2+  0.2-    080310 704  1.2+  0.9-    090423 J47  0.1-  0.2+  
070311 349  0.3+  0.4-    080310 704  0.8+  0.9-    090423 J47  0.3+  0.2-  
070311 A32  0.4-  1.1+    080310 704  0.5+  0.5-    090423 J47  0.5+  0.7+  
070311 A32  0.8-  0.4-    080310 704  1.6+  0.2-    090424 400  0.6+  0.0   
070311 A32  1.1-  0.7-    080310 704 (3.4+  1.2+)   090424 400  0.5+  0.2+  
070312 850  0.0   0.3+    080313 B49 (2.8+  3.7-)   090424 400  0.6+  0.2+  
070312 850  0.1+  0.1+    080316 415  0.6+  0.4+    090427 H10  0.4+  0.3-  
070312 850  0.1+  0.1-    080316 415  0.6+  0.5-    090427 H10  0.8+  0.3-  
070312 850  0.2+  0.1+    080317 900  0.5+  0.7-    090427 900  1.0-  0.1-  
070312 372  0.3-  0.4-    080317 900  0.8-  0.5+    090427 900  1.2-  0.4+  
070312 215  0.0   0.1+    080325 104  1.0-  1.1+    090502 J36  0.4+  0.2-  
070312 215  0.1-  0.1-    080325 104  0.5+  0.4+    090502 J36  0.3+  0.5-  
070312 215  0.1+  0.2-    080325 104  0.2+  0.6+    090502 J36  0.1-  0.2-  
070313 D88  0.4-  0.4+    080328 704  0.5-  1.0-                            
070313 D88  0.8-  0.5+    080328 704  0.3+  0.0                             

